FENGYUN 1C DEB

Satellite information

Favourite Embed

Satellite Type and Status

DEBRISIN ORBIT

Key statistics

Satellite FENGYUN 1C DEB at a glance.

Uptime

9715

Days in orbit

Revolutions

≈ 13.5

Per day

Orbit

SSO

Sun Synchronous Orbit

Inclination

102.7

Latest

Satellite identification and parameters

Extended collection of information and parameters for FENGYUN 1C DEB.

Object identification

Identified? True

Debris? True

Object name: FENGYUN 1C DEB

International designator: 1999-025EJJ

Object number (NORAD): 37464

Object ID (CCSDS): 37464

Country: PEOPLES REPUBLIC OF CHINA (PRC)

Current information (Y/N): Y

RCS size: SMALL

Orbital parameters

Period: 106.912 minutes

Inclination: 102.709 deg

SMA: 7461.822 km

Apoapsis: 1421.116 km

Periapsis: 746.258 km

RAAN: 271.2485 deg

Eccentricy: 0.04522077

Argument of periapsis: 116.6375 deg

Mean anomaly: 248.1799 deg

Mean motion: 13.46900293 rev/day

Mean motion (dot): 0.00004008 rev/day2

B* drag term: 0.0035932228 1/REarth

Two-line elements (TLE)

Creation date: Dec. 13, 2025, 5:47 p.m.

Reference frame: TEME

Reference center: EARTH

Epoch: Dec. 13, 2025, 1:39 a.m. UTC

TLE line 0: 0 FENGYUN 1C DEB

TLE line 1: 1 37464U 99025EJJ 25347.06909563 .00004008 00000-0 35932-2 0 9994

TLE line 2: 2 37464 102.7090 271.2485 0452208 116.6375 248.1799 13.46900293609264

Live tracking on map

Real-time ground track for satellite FENGYUN 1C DEB.

In-orbit conjunctions

A list of the most updated potential collisions computed for object FENGYUN 1C DEB.

Target Orbit TCA Probability of collision Miss distance Type
SL-8 DEB LEO 2025-07-05 17:37:28 0.0001159779 128.0 (m) DEBRIS
COSMOS 1697 LEO 2025-04-27 09:19:45 0.0005795581 318.0 (m) PAYLOAD
SL-8 R/B LEO 2024-08-19 06:28:23 0.0001647491 136.0 (m) ROCKET BODY
COSMOS 1754 LEO 2024-06-09 18:44:45 0.0001492567 579.0 (m) PAYLOAD

Associated space launch

Chinese polar orbiting meteorological satellite

FENGYUN 1C DEB was lifted into orbit during the mission ‘Long March 4B | Feng Yun 1C’, on board a Long March 4B space rocket.

The launch took place on May 10, 1999, 1:33 a.m. from Launch Complex 7.

For more information about the launch, click the button.

Launch to space Long March 4B | Feng Yun 1C
Long March 4B | Feng Yun 1C

Agency: N/A

Status: Launch Successful

Launch date: May 10, 1999, 1:33 a.m. UTC

Rocket: Long March 4B

Launch pad: Launch Complex 7

Location: Taiyuan Satellite Launch Center, People's Republic of China

...

Latest news about this satellite

There are no fresh news available about this satellite. Check back as we update our databases every day.


Newsletter sign-up

Weekly statistics, charts and insights to help you stay on top of the space industry.